Tracking 19170 objects as of 23-May-2018
HD Live streaming from Space Station
objects crossing your sky now

FENGYUN 1C DEB

Track FENGYUN 1C DEB now!
10-day predictions


NORAD ID: 29991
Int'l Code: 1999-025LR
Perigee: 797.6 km
Apogee: 812.7 km
Inclination: 102.2 °
Period: 100.8 minutes
Semi major axis: 7176 km
RCS: 0.1137 m2 (medium)
Launch date: May 10, 1999
Source: People's Republic of China (PRC)
Launch site: Taiyaun Space Center, China (TSC)

Note: This is SATELLITE DEBRIS
aabbcc
Your satellite tracking list
Your tracking list is empty




NASA's NSSDC Master Catalog

Two Line Element Set (TLE):
1 29991U 99025LR  18142.93580914 +.00001244 +00000-0 +53027-3 0  9991
2 29991 102.2075 276.5376 0010498 148.3592 325.7707 14.28118703587173
Source of the keplerian elements: AFSPC